[[{"header":{"parameterUnit":"m.s-1","parameterCategory":1,"la1":30.2991,"la2":30.254,"lo1":-89.0895,"lo2":-89.0444,"dy":0.0017,"dx":0.0017,"nx":28,"ny":28,"refTime":"2025-07-31T09:00:00:Z","depth":0,"parameterNumber":2,"parameterNumberName":"U-component_of_WINDS"},"data":[0,0,0,0,0,0,0,0,0,0,0,0,0,0,0,0,0,0,0,0,0,0,0,0,0,0,0,0,0,0,0,0,0,0,0,0,0,0,0,0,0,0,0,0,0,0,0,0,0,0,0,0,0,0,0,0,0,0,0.4507,0.4506,0,0.4466,0.4465,0.4465,0.4484,0.4485,0.4486,0.4487,0.4439,0.4437,0.4434,0,0,0,0,0,0,0,0,0,0,0,0,0,0.4598,0.4596,0.4507,0.4506,0.4506,0.4466,0.4465,0.4465,0.4484,0.4485,0.4486,0.4487,0.444,0.4437,0.4434,0,0,0,0,0,0,0,0,0,0,0,0,0,0.4557,0.4595,0.4507,0.4511,0.4511,0.4466,0.4465,0.4464,0.4483,0.4485,0.4487,0.4488,0.444,0.4437,0.4434,0.4381,0,0,0.4423,0.4422,0,0,0,0,0,0,0,0,0.456,0.4554,0.4511,0.451,0.451,0.4482,0.448,0.4436,0.4483,0.4493,0.4487,0.4489,0.4451,0.4447,0.4436,0.4379,0.4377,0.4423,0.4421,0.442,0.4419,0,0,0,0,0,0,0,0.4562,0.4556,0.449,0.451,0.451,0.4513,0.4509,0.4471,0.4464,0.4493,0.4494,0.4489,0.4452,0.4439,0.4435,0.4376,0.4423,0.442,0.4418,0.4417,0.4276,0.4274,0,0,0,0,0,0,0.4566,0.4558,0.4492,0.4489,0.454,0.451,0.4506,0.4489,0.4464,0.4462,0.4488,0.449,0.4444,0.4439,0.4433,0.4371,0.442,0.4416,0.4415,0.4278,0.4275,0.4274,0,0,0,0,0,0,0.4568,0.456,0.4493,0.4524,0.4516,0.4507,0.4488,0.4487,0.4475,0.4461,0.4459,0.4477,0.4445,0.4438,0.4395,0.4369,0.4415,0.4412,0.428,0.4277,0.4275,0.4245,0,0,0,0,0,0,0.457,0.456,0.4541,0.4524,0.4514,0.4456,0.4486,0.4485,0.447,0.4472,0.445,0.4448,0.4446,0.44,0.4391,0.4366,0.4409,0.4282,0.4278,0.4275,0.4248,0.4242,0.4236,0,0,0,0,0,0.4573,0.4532,0.454,0.4532,0.449,0.4455,0.4449,0.445,0.4468,0.4448,0.4439,0.4448,0.4374,0.4395,0.4386,0.4359,0.4283,0.4279,0.4276,0.4251,0.4243,0.4237,0,0,0,0,0,0,0.4544,0.453,0.4538,0.4491,0.4474,0.4458,0.4433,0.4441,0.4418,0.4421,0.4421,0.4416,0.4371,0.4361,0.4385,0.4307,0.4331,0.4325,0.4316,0.4308,0.4302,0.4305,0.4406,0,0,0,0,0,0.4533,0.4507,0.4496,0.4455,0.4447,0.4441,0.4426,0.4428,0.441,0.4403,0.4391,0.4372,0.4344,0.4326,0.4299,0.4248,0.4243,0.4224,0.4219,0.4214,0.4208,0.4181,0.4173,0.4261,0.4261,0.4261,0,0,0.4507,0.4497,0.448,0.4449,0.4436,0.4409,0.4435,0.4404,0.4383,0.4397,0.4357,0.4347,0.4326,0.4279,0.4257,0.4269,0.4183,0.4209,0.4205,0.4202,0.4176,0.4168,0.4161,0.4258,0.4259,0.4259,0,0,0.4448,0.4437,0.4403,0.4391,0.4373,0.437,0.4362,0.4346,0.4341,0.4301,0.4311,0.4286,0.4238,0.4223,0.4209,0.4148,0.4155,0.4139,0.4107,0.4081,0.4074,0.4068,0.4046,0.4038,0.4134,0.4134,0.4134,0,0.4418,0.4379,0.4383,0.4353,0.4339,0.4354,0.4318,0.4306,0.4279,0.4269,0.4283,0.4225,0.4211,0.4161,0.4147,0.4135,0.4125,0.4141,0.4075,0.4069,0.4063,0.4042,0.4034,0.4132,0.4132,0.4132,0.4132,0,0.4344,0.4316,0.429,0.4267,0.4251,0.4217,0.4217,0.4199,0.4203,0.4199,0.4158,0.4144,0.4115,0.4104,0.4107,0.4055,0.4063,0.4076,0.4099,0.4053,0.4033,0.4025,0.4129,0.413,0.413,0.4131,0,0,0.4261,0.4244,0.4235,0.4225,0.4208,0.4186,0.4154,0.4129,0.4114,0.4096,0.4069,0.403,0.4043,0.4028,0.4029,0.4006,0.3959,0.4022,0.4022,0.4011,0.3902,0.3892,0.3882,0.3965,0.3964,0.3963,0.3904,0,0.42,0.4147,0.4151,0.41,0.4075,0.409,0.4062,0.4048,0.4044,0.4021,0.4016,0.3989,0.4008,0.3999,0.3977,0.397,0.3937,0.3974,0.3939,0.3938,0.3943,0.3872,0.3861,0.3806,0.3896,0.3895,0.3894,0,0.4121,0.4104,0.405,0.4039,0.4029,0.4004,0.3983,0.3961,0.3946,0.3945,0.3929,0.3935,0.3903,0.3929,0.3884,0.3909,0.3895,0.389,0.3888,0.3883,0.3912,0.3866,0.3788,0.378,0.3882,0.3883,0.3884,0,0.4067,0.403,0.3994,0.3985,0.3971,0.3953,0.3946,0.3933,0.3919,0.39,0.389,0.3867,0.3854,0.3835,0.3835,0.3854,0.379,0.3815,0.3787,0.3787,0.3771,0.3772,0.369,0.3763,0.3764,0.3764,0.3764,0,0.3998,0.3964,0.3969,0.3947,0.391,0.3917,0.388,0.3875,0.3863,0.384,0.3851,0.3828,0.383,0.3806,0.3806,0.3769,0.3763,0.3761,0.3761,0.3759,0.376,0.3749,0.3753,0.3762,0.3762,0.3762,0.3763,0,0.3929,0.3932,0.3893,0.3885,0.3882,0.3855,0.3847,0.3826,0.3824,0.3794,0.3788,0.3784,0.3758,0.3757,0.3725,0.3725,0.3681,0.3685,0.3686,0.3687,0.3659,0.3661,0.3567,0.3555,0.3636,0.3636,0.3635,0,0.3885,0.386,0.385,0.3836,0.3829,0.3806,0.3793,0.3798,0.3783,0.3766,0.3747,0.3722,0.3703,0.366,0.3654,0.3631,0.3634,0.3603,0.363,0.3631,0.3634,0.3635,0.3633,0.3597,0.3596,0.3595,0.3595,0,0.3805,0.3808,0.3789,0.3771,0.3755,0.374,0.3727,0.3715,0.3719,0.3701,0.3676,0.3661,0.3632,0.3607,0.3585,0.3577,0.3586,0.3587,0.3579,0.3576,0.3578,0.3577,0.3671,0.3588,0.3589,0.3589,0.359,0.359,0.3747,0.3727,0.3717,0.3696,0.3688,0.3675,0.3656,0.3653,0.3633,0.3611,0.3615,0.3587,0.3574,0.3546,0.3537,0.3514,0.3525,0.3513,0.351,0.3507,0.3505,0.3583,0.351,0.351,0.3511,0.3511,0.3511,0,0.3668,0.3664,0.3645,0.3627,0.3611,0.3624,0.3611,0.3595,0.3571,0.356,0.3542,0.3514,0.3491,0.3484,0.3462,0.3446,0.345,0.344,0.344,0.3439,0.3496,0.3505,0.3437,0.3437,0.3437,0.3437,0.3437,0.3437,0.3625,0.3592,0.3594,0.3557,0.3553,0.3527,0.3519,0.3507,0.3499,0.3468,0.345,0.3447,0.3437,0.3415,0.3395,0.3394,0.3385,0.3373,0.3373,0.3427,0.3434,0.3441,0.345,0.3371,0.3371,0.3318,0.3317,0.3317]},{"header":{"parameterUnit":"m.s-1","parameterCategory":1,"la1":30.2991,"la2":30.254,"lo1":-89.0895,"lo2":-89.0444,"dy":0.0017,"dx":0.0017,"nx":28,"ny":28,"refTime":"2025-07-31T09:00:00:Z","depth":0,"parameterNumber":3,"parameterNumberName":"V-component_of_WINDS"},"data":[0,0,0,0,0,0,0,0,0,0,0,0,0,0,0,0,0,0,0,0,0,0,0,0,0,0,0,0,0,0,0,0,0,0,0,0,0,0,0,0,0,0,0,0,0,0,0,0,0,0,0,0,0,0,0,0,0,0,-1.5543,-1.5544,0,-1.5624,-1.5625,-1.5626,-1.5616,-1.5615,-1.5614,-1.5613,-1.5693,-1.5696,-1.5699,0,0,0,0,0,0,0,0,0,0,0,0,0,-1.5376,-1.538,-1.5543,-1.5544,-1.5545,-1.5624,-1.5625,-1.5626,-1.5617,-1.5615,-1.5614,-1.5612,-1.5692,-1.5696,-1.57,0,0,0,0,0,0,0,0,0,0,0,0,0,-1.5452,-1.5381,-1.5543,-1.555,-1.5551,-1.5624,-1.5625,-1.5627,-1.5617,-1.5615,-1.5613,-1.5611,-1.569,-1.5695,-1.57,-1.577,0,0,-1.5716,-1.5718,0,0,0,0,0,0,0,0,-1.5448,-1.5458,-1.5548,-1.555,-1.5551,-1.5608,-1.5596,-1.5675,-1.5618,-1.5592,-1.5613,-1.561,-1.5666,-1.5673,-1.5692,-1.5774,-1.5777,-1.5716,-1.5719,-1.5721,-1.5723,0,0,0,0,0,0,0,-1.5443,-1.5455,-1.5575,-1.5549,-1.5551,-1.5548,-1.5556,-1.5611,-1.5639,-1.5594,-1.5594,-1.5603,-1.5667,-1.5688,-1.5694,-1.5778,-1.5716,-1.572,-1.5723,-1.5725,-1.5919,-1.5921,0,0,0,0,0,0,-1.5436,-1.545,-1.5572,-1.5577,-1.5494,-1.5552,-1.5562,-1.5592,-1.5638,-1.5643,-1.5605,-1.5603,-1.568,-1.5688,-1.5697,-1.5781,-1.5721,-1.5726,-1.5729,-1.5917,-1.592,-1.5922,0,0,0,0,0,0,-1.5433,-1.5447,-1.5569,-1.5514,-1.5529,-1.5557,-1.5591,-1.5595,-1.5615,-1.5647,-1.5651,-1.5622,-1.5679,-1.569,-1.5752,-1.5783,-1.5728,-1.5733,-1.5915,-1.5918,-1.5921,-1.595,0,0,0,0,0,0,-1.5428,-1.5446,-1.5474,-1.5515,-1.5532,-1.5624,-1.5593,-1.5598,-1.5624,-1.5622,-1.5663,-1.5668,-1.5678,-1.5744,-1.5757,-1.5789,-1.5737,-1.5912,-1.5916,-1.592,-1.5946,-1.5953,-1.596,0,0,0,0,0,-1.5422,-1.5478,-1.5475,-1.549,-1.5568,-1.5626,-1.5636,-1.5647,-1.5627,-1.5655,-1.5674,-1.5667,-1.5778,-1.5751,-1.5765,-1.5799,-1.591,-1.5915,-1.5919,-1.5943,-1.5952,-1.596,0,0,0,0,0,0,-1.544,-1.5484,-1.5481,-1.5552,-1.5586,-1.5624,-1.5659,-1.5656,-1.5695,-1.5691,-1.5702,-1.5712,-1.5774,-1.5793,-1.5762,-1.5868,-1.5841,-1.5849,-1.5854,-1.5863,-1.587,-1.5864,-1.5741,0,0,0,0,0,-1.5452,-1.5497,-1.5532,-1.5592,-1.5609,-1.5631,-1.5657,-1.5663,-1.5697,-1.5711,-1.5735,-1.5768,-1.581,-1.5837,-1.5878,-1.5948,-1.5956,-1.5979,-1.5986,-1.5991,-1.5998,-1.6035,-1.6045,-1.5938,-1.5938,-1.5938,0,0,-1.5478,-1.5507,-1.5535,-1.5596,-1.5623,-1.5667,-1.5643,-1.5692,-1.5724,-1.5718,-1.5778,-1.5796,-1.5834,-1.59,-1.593,-1.5917,-1.6029,-1.5997,-1.6002,-1.6005,-1.6041,-1.6051,-1.606,-1.5941,-1.5941,-1.594,0,0,-1.5548,-1.5575,-1.5627,-1.5654,-1.5694,-1.5709,-1.5721,-1.576,-1.5772,-1.5833,-1.5828,-1.5867,-1.594,-1.5966,-1.5989,-1.6067,-1.6061,-1.608,-1.6116,-1.6152,-1.6161,-1.6168,-1.6195,-1.6205,-1.6086,-1.6086,-1.6086,0,-1.5574,-1.5643,-1.5654,-1.5703,-1.573,-1.5726,-1.5778,-1.5803,-1.5854,-1.5872,-1.5857,-1.5947,-1.5972,-1.6044,-1.6063,-1.6082,-1.6095,-1.6075,-1.6159,-1.6166,-1.6174,-1.6199,-1.621,-1.6088,-1.6088,-1.6088,-1.6088,0,-1.5673,-1.572,-1.5757,-1.5807,-1.5838,-1.5888,-1.5906,-1.5935,-1.5938,-1.5953,-1.6014,-1.6043,-1.6089,-1.6107,-1.611,-1.6178,-1.6169,-1.6156,-1.6129,-1.6186,-1.621,-1.622,-1.6091,-1.609,-1.609,-1.6089,0,0,-1.5757,-1.5812,-1.5826,-1.5848,-1.5891,-1.5927,-1.5977,-1.6022,-1.6047,-1.6082,-1.6122,-1.6183,-1.6172,-1.6198,-1.6203,-1.6235,-1.6294,-1.6218,-1.6219,-1.6231,-1.637,-1.6379,-1.639,-1.629,-1.6292,-1.6293,-1.6367,0,-1.5831,-1.5919,-1.593,-1.6008,-1.6051,-1.6048,-1.609,-1.6121,-1.6136,-1.6174,-1.619,-1.6233,-1.6215,-1.623,-1.6262,-1.628,-1.6322,-1.6275,-1.6327,-1.6329,-1.6317,-1.6403,-1.6413,-1.6481,-1.6376,-1.6378,-1.6379,0,-1.5929,-1.5967,-1.605,-1.6086,-1.6105,-1.6143,-1.6185,-1.6221,-1.6255,-1.6264,-1.6292,-1.6294,-1.6343,-1.6314,-1.6381,-1.6349,-1.637,-1.6382,-1.6385,-1.639,-1.6357,-1.641,-1.6503,-1.6513,-1.6394,-1.6393,-1.6392,0,-1.5981,-1.6053,-1.6111,-1.613,-1.6175,-1.6202,-1.6221,-1.6253,-1.6279,-1.6316,-1.6332,-1.6374,-1.6396,-1.6427,-1.6439,-1.6416,-1.6505,-1.6477,-1.6512,-1.6512,-1.6531,-1.653,-1.6628,-1.6546,-1.6546,-1.6546,-1.6545,0,-1.6062,-1.6112,-1.6135,-1.6171,-1.6227,-1.6238,-1.6293,-1.6311,-1.6339,-1.6377,-1.6376,-1.6412,-1.6425,-1.6463,-1.6472,-1.6525,-1.6535,-1.6543,-1.6545,-1.6543,-1.6542,-1.6557,-1.6553,-1.6548,-1.6548,-1.6547,-1.6547,0,-1.613,-1.6148,-1.6211,-1.6247,-1.6258,-1.6297,-1.6328,-1.6361,-1.6376,-1.6424,-1.6436,-1.6458,-1.6502,-1.6517,-1.657,-1.6576,-1.6638,-1.6636,-1.6627,-1.6627,-1.6662,-1.6658,-1.6773,-1.6788,-1.6696,-1.6697,-1.6698,0,-1.618,-1.6219,-1.626,-1.6286,-1.6306,-1.6348,-1.6375,-1.6387,-1.6415,-1.6455,-1.6484,-1.6527,-1.6563,-1.6633,-1.6653,-1.6693,-1.6691,-1.6729,-1.6697,-1.6694,-1.6691,-1.6688,-1.6692,-1.6735,-1.6736,-1.6737,-1.6737,0,-1.6268,-1.6274,-1.6314,-1.6356,-1.6388,-1.6421,-1.6453,-1.6474,-1.6491,-1.6522,-1.6567,-1.6594,-1.6648,-1.6691,-1.6731,-1.675,-1.6746,-1.6747,-1.6757,-1.6756,-1.6749,-1.6752,-1.6642,-1.6744,-1.6744,-1.6743,-1.6743,-1.6742,-1.6328,-1.6362,-1.6396,-1.6439,-1.6465,-1.6494,-1.6528,-1.6546,-1.6585,-1.663,-1.6634,-1.6682,-1.6713,-1.6768,-1.6788,-1.6825,-1.6814,-1.6829,-1.6833,-1.6836,-1.6839,-1.6743,-1.6832,-1.6832,-1.6832,-1.6832,-1.6832,0,-1.6415,-1.6436,-1.6476,-1.6521,-1.6555,-1.6549,-1.6584,-1.6612,-1.6655,-1.6685,-1.672,-1.6771,-1.6812,-1.6835,-1.6875,-1.69,-1.69,-1.6911,-1.6909,-1.6913,-1.6846,-1.6833,-1.6911,-1.6911,-1.6911,-1.6911,-1.6911,-1.6911,-1.6464,-1.6521,-1.6531,-1.6599,-1.662,-1.6668,-1.6688,-1.6715,-1.6739,-1.6796,-1.6831,-1.6846,-1.6872,-1.6915,-1.6952,-1.6957,-1.6972,-1.6984,-1.6988,-1.6926,-1.6918,-1.691,-1.6897,-1.6987,-1.6987,-1.7051,-1.7052,-1.7053]}]]